| time (UTC) | temp C | wind direction | speed KPH | gust KPH | rain 1hr cm | rain 24hr cm | rain mn cm | humidity % | barometer mb |
| 20260508192231 | 13 | 53 | 4.8 | 17.7 | 0.00 | 0.00 | 0.00 | 35 | 1023.2 |
| 20260508191728 | 13 | 93 | 4.8 | 14.5 | 0.00 | 0.00 | 0.00 | 38 | 1023.0 |
| 20260508191225 | 12 | 45 | 3.2 | 12.9 | 0.00 | 0.00 | 0.00 | 35 | 1023.0 |
| 20260508190722 | 13 | 73 | 6.4 | 11.3 | 0.00 | 0.00 | 0.00 | 34 | 1023.2 |
| 20260508190218 | 13 | 7 | 9.7 | 11.3 | 0.00 | 0.00 | 0.00 | 35 | 1023.3 |
| 20260508185715 | 13 | 56 | 1.6 | 4.8 | 0.00 | 0.00 | 0.00 | 36 | 1023.0 |
| 20260508185213 | 13 | 136 | 1.6 | 9.7 | 0.00 | 0.00 | 0.00 | 38 | 1023.3 |
| 20260508184709 | 12 | 84 | 3.2 | 11.3 | 0.00 | 0.00 | 0.00 | 37 | 1023.2 |
| 20260508184207 | 12 | 66 | 8.0 | 17.7 | 0.00 | 0.00 | 0.00 | 37 | 1023.4 |
| 20260508183703 | 12 | 44 | 6.4 | 9.7 | 0.00 | 0.00 | 0.00 | 39 | 1023.3 |
| 20260508183159 | 12 | 198 | 8.0 | 11.3 | 0.00 | 0.00 | 0.00 | 37 | 1023.4 |
| 20260508182655 | 12 | 97 | 3.2 | 4.8 | 0.00 | 0.00 | 0.00 | 39 | 1023.2 |
| 20260508182152 | 12 | 355 | 6.4 | 12.9 | 0.00 | 0.00 | 0.00 | 38 | 1023.5 |
| 20260508181647 | 12 | 304 | 6.4 | 12.9 | 0.00 | 0.00 | 0.00 | 38 | 1023.3 |
| 20260508181145 | 12 | 69 | 0.0 | 11.3 | 0.00 | 0.00 | 0.00 | 38 | 1023.4 |
| 20260508180642 | 11 | 51 | 4.8 | 6.4 | 0.00 | 0.00 | 0.00 | 39 | 1023.4 |
| 20260508180139 | 12 | 92 | 3.2 | 12.9 | 0.00 | 0.00 | 0.00 | 39 | 1023.4 |
| 20260508175635 | 12 | 51 | 6.4 | 16.1 | 0.00 | 0.00 | 0.00 | 41 | 1023.5 |
| 20260508175132 | 12 | 64 | 3.2 | 9.7 | 0.00 | 0.00 | 0.00 | 38 | 1023.7 |
| 20260508174629 | 12 | 47 | 4.8 | 4.8 | 0.00 | 0.00 | 0.00 | 38 | 1023.4 |
| 20260508174126 | 12 | 329 | 8.0 | 11.3 | 0.00 | 0.00 | 0.00 | 39 | 1023.5 |
| 20260508173623 | 12 | 57 | 0.0 | 11.3 | 0.00 | 0.00 | 0.00 | 38 | 1023.5 |
| 20260508173119 | 12 | 80 | 1.6 | 4.8 | 0.00 | 0.00 | 0.00 | 39 | 1023.4 |
| 20260508172616 | 11 | 128 | 1.6 | 3.2 | 0.00 | 0.00 | 0.00 | 38 | 1023.4 |
| 20260508172113 | 11 | 52 | 6.4 | 9.7 | 0.00 | 0.00 | 0.00 | 39 | 1023.3 |
| 20260508171609 | 11 | 65 | 1.6 | 6.4 | 0.00 | 0.00 | 0.00 | 38 | 1023.5 |
| 20260508171106 | 11 | 10 | 9.7 | 12.9 | 0.00 | 0.00 | 0.00 | 38 | 1023.5 |
| 20260508170603 | 11 | 45 | 4.8 | 9.7 | 0.00 | 0.00 | 0.00 | 37 | 1023.4 |
| 20260508170100 | 11 | 101 | 1.6 | 6.4 | 0.00 | 0.00 | 0.00 | 38 | 1023.4 |
| 20260508165557 | 11 | 216 | 4.8 | 6.4 | 0.00 | 0.00 | 0.00 | 36 | 1023.4 |
| 20260508165054 | 11 | 125 | 3.2 | 4.8 | 0.00 | 0.00 | 0.00 | 37 | 1023.5 |
| 20260508164551 | 11 | 80 | 0.0 | 9.7 | 0.00 | 0.00 | 0.00 | 37 | 1023.4 |
| 20260508164048 | 11 | 111 | 3.2 | 9.7 | 0.00 | 0.00 | 0.00 | 38 | 1023.3 |
| 20260508163545 | 11 | 74 | 0.0 | 4.8 | 0.00 | 0.00 | 0.00 | 39 | 1023.4 |
| 20260508163042 | 10 | 85 | 6.4 | 12.9 | 0.00 | 0.00 | 0.00 | 38 | 1023.2 |
| 20260508162538 | 10 | 39 | 3.2 | 3.2 | 0.00 | 0.00 | 0.00 | 36 | 1023.4 |
| 20260508162036 | 11 | 17 | 6.4 | 11.3 | 0.00 | 0.00 | 0.00 | 38 | 1023.4 |
| 20260508161532 | 11 | 80 | 1.6 | 4.8 | 0.00 | 0.00 | 0.00 | 39 | 1023.2 |
| 20260508161030 | 10 | 108 | 1.6 | 3.2 | 0.00 | 0.00 | 0.00 | 39 | 1023.4 |
| 20260508160528 | 10 | 80 | 3.2 | 9.7 | 0.00 | 0.00 | 0.00 | 38 | 1023.3 |
| 20260508160025 | 10 | 76 | 6.4 | 9.7 | 0.00 | 0.00 | 0.00 | 39 | 1023.3 |
| 20260508155522 | 10 | 57 | 1.6 | 9.7 | 0.00 | 0.00 | 0.00 | 39 | 1023.3 |
| 20260508155019 | 10 | 82 | 3.2 | 4.8 | 0.00 | 0.00 | 0.00 | 40 | 1023.3 |
| 20260508154516 | 10 | 125 | 1.6 | 4.8 | 0.00 | 0.00 | 0.00 | 42 | 1023.2 |
| 20260508154013 | 10 | 82 | 1.6 | 6.4 | 0.00 | 0.00 | 0.00 | 42 | 1023.2 |
| 20260508153509 | 10 | 76 | 1.6 | 6.4 | 0.00 | 0.00 | 0.00 | 41 | 1023.2 |
| 20260508153006 | 10 | 42 | 3.2 | 4.8 | 0.00 | 0.00 | 0.00 | 40 | 1023.0 |
| 20260508152503 | 10 | 331 | 4.8 | 4.8 | 0.00 | 0.00 | 0.00 | 41 | 1023.3 |
| 20260508151959 | 9 | 3 | 1.6 | 12.9 | 0.00 | 0.00 | 0.00 | 38 | 1023.0 |
| 20260508151455 | 9 | 13 | 3.2 | 4.8 | 0.00 | 0.00 | 0.00 | 40 | 1023.2 |
| 20260508150952 | 9 | 137 | 1.6 | 3.2 | 0.00 | 0.00 | 0.00 | 41 | 1023.2 |
| 20260508150449 | 9 | 56 | 3.2 | 4.8 | 0.00 | 0.00 | 0.00 | 40 | 1022.9 |
| 20260508145944 | 9 | 44 | 1.6 | 1.6 | 0.00 | 0.00 | 0.00 | 40 | 1022.9 |
| 20260508145441 | 8 | 81 | 0.0 | 3.2 | 0.00 | 0.00 | 0.00 | 42 | 1023.0 |
| 20260508144938 | 8 | 67 | 1.6 | 6.4 | 0.00 | 0.00 | 0.00 | 40 | 1023.0 |
| 20260508144436 | 8 | 78 | 3.2 | 4.8 | 0.00 | 0.00 | 0.00 | 41 | 1022.9 |
| 20260508143933 | 8 | 66 | 3.2 | 9.7 | 0.00 | 0.00 | 0.00 | 40 | 1023.0 |
| 20260508143431 | 8 | 84 | 0.0 | 1.6 | 0.00 | 0.00 | 0.00 | 43 | 1023.0 |
| 20260508142927 | 8 | 74 | 3.2 | 4.8 | 0.00 | 0.00 | 0.00 | 41 | 1022.9 |
| 20260508142425 | 8 | 92 | 0.0 | 1.6 | 0.00 | 0.00 | 0.00 | 41 | 1023.0 |
| 20260508141920 | 8 | 76 | 1.6 | 6.4 | 0.00 | 0.00 | 0.00 | 42 | 1023.0 |
| 20260508141417 | 8 | 56 | 1.6 | 3.2 | 0.00 | 0.00 | 0.00 | 42 | 1023.0 |
| 20260508140915 | 7 | 53 | 1.6 | 1.6 | 0.00 | 0.00 | 0.00 | 43 | 1022.8 |
| 20260508140412 | 7 | 116 | 3.2 | 3.2 | 0.00 | 0.00 | 0.00 | 44 | 1022.9 |
| 20260508135907 | 7 | 79 | 0.0 | 0.0 | 0.00 | 0.00 | 0.00 | 47 | 1022.9 |
| 20260508135404 | 7 | 79 | 0.0 | 0.0 | 0.00 | 0.00 | 0.00 | 49 | 1022.8 |
| 20260508134900 | 6 | 91 | 0.0 | 0.0 | 0.00 | 0.00 | 0.00 | 48 | 1022.7 |
| 20260508134357 | 6 | 87 | 0.0 | 0.0 | 0.00 | 0.00 | 0.00 | 48 | 1022.7 |
| 20260508133853 | 5 | 98 | 0.0 | 0.0 | 0.00 | 0.00 | 0.00 | 51 | 1022.7 |
| 20260508133351 | 5 | 86 | 0.0 | 0.0 | 0.00 | 0.00 | 0.00 | 53 | 1022.8 |
| 20260508132848 | 5 | 82 | 0.0 | 0.0 | 0.00 | 0.00 | 0.00 | 55 | 1022.7 |
| 20260508132346 | 5 | 83 | 0.0 | 0.0 | 0.00 | 0.00 | 0.00 | 53 | 1022.8 |
| 20260508131843 | 5 | 75 | 0.0 | 0.0 | 0.00 | 0.00 | 0.00 | 54 | 1022.4 |
| 20260508131338 | 5 | 66 | 1.6 | 1.6 | 0.00 | 0.00 | 0.00 | 55 | 1022.4 |
| 20260508130835 | 5 | 79 | 0.0 | 1.6 | 0.00 | 0.00 | 0.00 | 52 | 1022.4 |
| 20260508130332 | 5 | 78 | 0.0 | 0.0 | 0.00 | 0.00 | 0.00 | 52 | 1022.3 |
| 20260508125828 | 5 | 69 | 0.0 | 1.6 | 0.00 | 0.00 | 0.00 | 51 | 1022.4 |
| 20260508125325 | 6 | 74 | 0.0 | 1.6 | 0.00 | 0.00 | 0.00 | 48 | 1022.4 |
| 20260508124822 | 5 | 83 | 0.0 | 1.6 | 0.00 | 0.00 | 0.00 | 50 | 1022.3 |
| 20260508124319 | 3 | 21 | 3.2 | 4.8 | 0.00 | 0.00 | 0.00 | 52 | 1022.3 |
| 20260508123818 | 3 | 71 | 0.0 | 3.2 | 0.00 | 0.00 | 0.00 | 57 | 1022.1 |
| 20260508123316 | 3 | 66 | 0.0 | 3.2 | 0.00 | 0.00 | 0.00 | 57 | 1022.1 |
| 20260508122812 | 3 | 71 | 0.0 | 1.6 | 0.00 | 0.00 | 0.00 | 57 | 1022.0 |
| 20260508122308 | 3 | 71 | 1.6 | 1.6 | 0.00 | 0.00 | 0.00 | 57 | 1021.9 |
| 20260508121806 | 3 | 78 | 0.0 | 1.6 | 0.00 | 0.00 | 0.00 | 54 | 1022.0 |
| 20260508121304 | 3 | 81 | 1.6 | 3.2 | 0.00 | 0.00 | 0.00 | 55 | 1022.0 |
| 20260508120801 | 4 | 72 | 0.0 | 1.6 | 0.00 | 0.00 | 0.00 | 55 | 1021.9 |
| 20260508120259 | 5 | 77 | 0.0 | 0.0 | 0.00 | 0.00 | 0.00 | 52 | 1022.0 |
| 20260508115756 | 5 | 69 | 1.6 | 3.2 | 0.00 | 0.00 | 0.00 | 50 | 1021.9 |
| 20260508115254 | 4 | 74 | 0.0 | 1.6 | 0.00 | 0.00 | 0.00 | 53 | 1021.8 |
| 20260508114750 | 4 | 76 | 0.0 | 1.6 | 0.00 | 0.00 | 0.00 | 53 | 1021.9 |
| 20260508114247 | 4 | 78 | 0.0 | 0.0 | 0.00 | 0.00 | 0.00 | 52 | 1021.9 |
| 20260508113743 | 4 | 66 | 1.6 | 3.2 | 0.00 | 0.00 | 0.00 | 53 | 1021.8 |
| 20260508113242 | 3 | 76 | 0.0 | 1.6 | 0.00 | 0.00 | 0.00 | 54 | 1021.8 |
| 20260508112738 | 4 | 76 | 0.0 | 3.2 | 0.00 | 0.00 | 0.00 | 55 | 1022.0 |
| 20260508112235 | 3 | 65 | 1.6 | 3.2 | 0.00 | 0.00 | 0.00 | 55 | 1021.9 |
| 20260508111731 | 3 | 69 | 1.6 | 1.6 | 0.00 | 0.00 | 0.00 | 57 | 1021.6 |
| 20260508111229 | 3 | 70 | 3.2 | 3.2 | 0.00 | 0.00 | 0.00 | 57 | 1022.0 |
| 20260508110726 | 3 | 74 | 0.0 | 3.2 | 0.00 | 0.00 | 0.00 | 57 | 1022.0 |
| 20260508110224 | 4 | 66 | 1.6 | 1.6 | 0.00 | 0.00 | 0.00 | 57 | 1021.9 |
| 20260508105723 | 4 | 72 | 0.0 | 1.6 | 0.00 | 0.00 | 0.00 | 54 | 1022.1 |
| 20260508105220 | 4 | 76 | 0.0 | 1.6 | 0.00 | 0.00 | 0.00 | 56 | 1022.0 |
| 20260508104713 | 4 | 74 | 0.0 | 0.0 | 0.00 | 0.00 | 0.00 | 56 | 1021.9 |
| 20260508104209 | 4 | 74 | 0.0 | 0.0 | 0.00 | 0.00 | 0.00 | 56 | 1021.6 |
| 20260508103707 | 4 | 73 | 0.0 | 0.0 | 0.00 | 0.00 | 0.00 | 57 | 1021.8 |
| 20260508103204 | 4 | 73 | 0.0 | 1.6 | 0.00 | 0.00 | 0.00 | 57 | 1021.6 |
| 20260508102701 | 4 | 68 | 1.6 | 3.2 | 0.00 | 0.00 | 0.00 | 58 | 1021.8 |
| 20260508102159 | 4 | 77 | 0.0 | 1.6 | 0.00 | 0.00 | 0.00 | 58 | 1021.9 |
| 20260508101655 | 4 | 73 | 0.0 | 1.6 | 0.00 | 0.00 | 0.00 | 60 | 1021.6 |
| 20260508101153 | 4 | 75 | 0.0 | 1.6 | 0.00 | 0.00 | 0.00 | 59 | 1021.8 |
| 20260508100651 | 5 | 64 | 0.0 | 0.0 | 0.00 | 0.00 | 0.00 | 57 | 1021.8 |
| 20260508100149 | 5 | 82 | 1.6 | 1.6 | 0.00 | 0.00 | 0.00 | 58 | 1021.6 |
| 20260508095645 | 5 | 70 | 0.0 | 0.0 | 0.00 | 0.00 | 0.00 | 59 | 1021.9 |
| 20260508095142 | 5 | 68 | 0.0 | 0.0 | 0.00 | 0.00 | 0.00 | 59 | 1021.8 |
| 20260508094639 | 5 | 76 | 0.0 | 0.0 | 0.00 | 0.00 | 0.00 | 60 | 1021.5 |
| 20260508094135 | 5 | 72 | 0.0 | 0.0 | 0.00 | 0.00 | 0.00 | 60 | 1021.5 |
| 20260508093633 | 5 | 74 | 0.0 | 0.0 | 0.00 | 0.00 | 0.00 | 61 | 1021.4 |
| 20260508093130 | 5 | 74 | 0.0 | 0.0 | 0.00 | 0.00 | 0.00 | 61 | 1021.4 |
| 20260508092627 | 5 | 75 | 0.0 | 0.0 | 0.00 | 0.00 | 0.00 | 60 | 1021.6 |
| 20260508092126 | 5 | 69 | 0.0 | 0.0 | 0.00 | 0.00 | 0.00 | 59 | 1021.5 |
| 20260508091622 | 5 | 74 | 0.0 | 3.2 | 0.00 | 0.00 | 0.00 | 61 | 1021.4 |
| 20260508091120 | 5 | 68 | 1.6 | 1.6 | 0.00 | 0.00 | 0.00 | 61 | 1021.9 |
| 20260508090618 | 5 | 76 | 0.0 | 1.6 | 0.00 | 0.00 | 0.00 | 61 | 1021.6 |
| 20260508090115 | 5 | 75 | 0.0 | 1.6 | 0.00 | 0.00 | 0.00 | 60 | 1021.6 |
| 20260508085611 | 5 | 76 | 0.0 | 0.0 | 0.00 | 0.00 | 0.00 | 62 | 1021.5 |
| 20260508085108 | 5 | 72 | 0.0 | 1.6 | 0.00 | 0.00 | 0.00 | 61 | 1021.6 |
| 20260508084605 | 5 | 74 | 0.0 | 1.6 | 0.00 | 0.00 | 0.00 | 60 | 1021.8 |
| 20260508084102 | 5 | 66 | 0.0 | 0.0 | 0.00 | 0.00 | 0.00 | 60 | 1021.8 |
| 20260508083559 | 5 | 72 | 0.0 | 0.0 | 0.00 | 0.00 | 0.00 | 60 | 1021.9 |
| 20260508083056 | 5 | 67 | 1.6 | 1.6 | 0.00 | 0.00 | 0.00 | 59 | 1022.0 |
| 20260508082551 | 5 | 70 | 0.0 | 1.6 | 0.00 | 0.00 | 0.00 | 60 | 1021.8 |
| 20260508082048 | 5 | 76 | 0.0 | 0.0 | 0.00 | 0.00 | 0.00 | 59 | 1022.0 |
| 20260508081546 | 5 | 67 | 1.6 | 1.6 | 0.00 | 0.00 | 0.00 | 60 | 1022.0 |
| 20260508081042 | 5 | 81 | 0.0 | 1.6 | 0.00 | 0.00 | 0.00 | 60 | 1021.9 |
| 20260508080540 | 5 | 74 | 0.0 | 3.2 | 0.00 | 0.00 | 0.00 | 59 | 1022.3 |
| 20260508080037 | 5 | 62 | 0.0 | 0.0 | 0.00 | 0.00 | 0.00 | 59 | 1021.8 |
| 20260508075533 | 5 | 67 | 1.6 | 1.6 | 0.00 | 0.00 | 0.00 | 59 | 1021.9 |
| 20260508075031 | 5 | 80 | 0.0 | 0.0 | 0.00 | 0.00 | 0.00 | 58 | 1022.0 |
| 20260508074529 | 5 | 74 | 0.0 | 1.6 | 0.00 | 0.00 | 0.00 | 58 | 1021.9 |
| 20260508074025 | 5 | 77 | 0.0 | 0.0 | 0.00 | 0.00 | 0.00 | 56 | 1021.9 |
| 20260508073523 | 5 | 75 | 0.0 | 0.0 | 0.00 | 0.00 | 0.00 | 56 | 1022.0 |
| 20260508073020 | 5 | 61 | 1.6 | 3.2 | 0.00 | 0.00 | 0.00 | 56 | 1021.9 |
| 20260508072516 | 5 | 76 | 0.0 | 0.0 | 0.00 | 0.00 | 0.00 | 57 | 1022.0 |
| 20260508072013 | 5 | 74 | 0.0 | 0.0 | 0.00 | 0.00 | 0.00 | 57 | 1022.0 |
| 20260508071511 | 5 | 77 | 0.0 | 1.6 | 0.00 | 0.00 | 0.00 | 56 | 1021.8 |
| 20260508071008 | 6 | 75 | 0.0 | 1.6 | 0.00 | 0.00 | 0.00 | 55 | 1021.9 |
| 20260508070506 | 6 | 76 | 0.0 | 1.6 | 0.00 | 0.00 | 0.00 | 54 | 1022.0 |
| 20260508070004 | 6 | 73 | 1.6 | 1.6 | 0.00 | 0.00 | 0.00 | 52 | 1021.8 |
| 20260508065502 | 6 | 91 | 0.0 | 1.6 | 0.00 | 0.00 | 0.00 | 49 | 1022.0 |
| 20260508065000 | 6 | 71 | 0.0 | 1.6 | 0.00 | 0.00 | 0.00 | 51 | 1022.0 |
| 20260508064457 | 6 | 84 | 0.0 | 1.6 | 0.00 | 0.00 | 0.00 | 51 | 1021.9 |
| 20260508063954 | 7 | 72 | 0.0 | 3.2 | 0.00 | 0.00 | 0.00 | 51 | 1022.0 |
| 20260508063451 | 7 | 73 | 0.0 | 0.0 | 0.00 | 0.00 | 0.00 | 51 | 1022.0 |
| 20260508062949 | 7 | 80 | 0.0 | 3.2 | 0.00 | 0.00 | 0.00 | 49 | 1021.8 |
| 20260508062447 | 6 | 67 | 3.2 | 3.2 | 0.00 | 0.00 | 0.00 | 51 | 1022.0 |
| 20260508061943 | 6 | 68 | 0.0 | 3.2 | 0.00 | 0.00 | 0.00 | 53 | 1021.8 |
| 20260508061442 | 6 | 76 | 0.0 | 0.0 | 0.00 | 0.00 | 0.00 | 53 | 1021.9 |
| 20260508060938 | 6 | 78 | 0.0 | 0.0 | 0.00 | 0.00 | 0.00 | 55 | 1021.9 |
| 20260508060435 | 6 | 78 | 0.0 | 0.0 | 0.00 | 0.00 | 0.00 | 55 | 1021.9 |
| 20260508055931 | 6 | 73 | 0.0 | 0.0 | 0.00 | 0.00 | 0.00 | 56 | 1021.9 |
| 20260508055422 | 5 | 73 | 0.0 | 0.0 | 0.00 | 0.00 | 0.00 | 56 | 1022.0 |
| 20260508054918 | 6 | 72 | 0.0 | 0.0 | 0.00 | 0.00 | 0.00 | 56 | 1021.9 |
| 20260508054416 | 6 | 73 | 0.0 | 0.0 | 0.00 | 0.00 | 0.00 | 56 | 1022.0 |
| 20260508053912 | 6 | 72 | 0.0 | 1.6 | 0.00 | 0.00 | 0.00 | 56 | 1022.0 |
| 20260508053409 | 6 | 72 | 0.0 | 1.6 | 0.00 | 0.00 | 0.00 | 55 | 1022.0 |
| 20260508052907 | 5 | 70 | 1.6 | 1.6 | 0.00 | 0.00 | 0.00 | 56 | 1022.0 |
| 20260508052404 | 5 | 70 | 1.6 | 3.2 | 0.00 | 0.00 | 0.00 | 57 | 1021.9 |
| 20260508051900 | 5 | 75 | 0.0 | 1.6 | 0.00 | 0.00 | 0.00 | 57 | 1021.8 |
| 20260508051357 | 5 | 70 | 1.6 | 1.6 | 0.00 | 0.00 | 0.00 | 57 | 1021.6 |
| 20260508050853 | 6 | 71 | 1.6 | 1.6 | 0.00 | 0.00 | 0.00 | 57 | 1022.0 |
| 20260508050350 | 6 | 71 | 0.0 | 0.0 | 0.00 | 0.00 | 0.00 | 56 | 1021.8 |
| 20260508045846 | 6 | 71 | 1.6 | 1.6 | 0.00 | 0.00 | 0.00 | 55 | 1021.9 |
| 20260508045344 | 6 | 74 | 0.0 | 1.6 | 0.00 | 0.00 | 0.00 | 55 | 1022.0 |
| 20260508044841 | 6 | 69 | 1.6 | 1.6 | 0.00 | 0.00 | 0.00 | 54 | 1021.9 |
| 20260508044337 | 6 | 72 | 0.0 | 1.6 | 0.00 | 0.00 | 0.00 | 54 | 1022.0 |
| 20260508043833 | 6 | 73 | 0.0 | 0.0 | 0.00 | 0.00 | 0.00 | 53 | 1021.9 |
| 20260508043331 | 6 | 71 | 0.0 | 0.0 | 0.00 | 0.00 | 0.00 | 54 | 1021.9 |
| 20260508042827 | 6 | 74 | 0.0 | 0.0 | 0.00 | 0.00 | 0.00 | 56 | 1022.0 |
| 20260508042325 | 6 | 73 | 0.0 | 1.6 | 0.00 | 0.00 | 0.00 | 56 | 1021.9 |
| 20260508041822 | 6 | 68 | 0.0 | 1.6 | 0.00 | 0.00 | 0.00 | 55 | 1022.0 |
| 20260508041318 | 6 | 73 | 0.0 | 1.6 | 0.00 | 0.00 | 0.00 | 54 | 1022.0 |
| 20260508040815 | 6 | 64 | 1.6 | 1.6 | 0.00 | 0.00 | 0.00 | 54 | 1022.1 |
| 20260508040312 | 7 | 80 | 0.0 | 1.6 | 0.00 | 0.00 | 0.00 | 52 | 1021.8 |
| 20260508035809 | 7 | 83 | 0.0 | 0.0 | 0.00 | 0.00 | 0.00 | 50 | 1021.9 |
| 20260508035307 | 7 | 83 | 0.0 | 0.0 | 0.00 | 0.00 | 0.00 | 49 | 1021.8 |
| 20260508034803 | 7 | 85 | 0.0 | 0.0 | 0.00 | 0.00 | 0.00 | 47 | 1021.8 |
| 20260508034301 | 8 | 86 | 0.0 | 1.6 | 0.00 | 0.00 | 0.00 | 47 | 1021.8 |
| 20260508033757 | 8 | 86 | 0.0 | 0.0 | 0.00 | 0.00 | 0.00 | 45 | 1021.6 |
| 20260508033256 | 8 | 75 | 1.6 | 3.2 | 0.00 | 0.00 | 0.00 | 46 | 1021.6 |
| 20260508032753 | 8 | 79 | 0.0 | 0.0 | 0.00 | 0.00 | 0.00 | 44 | 1021.8 |
| 20260508032250 | 8 | 88 | 0.0 | 1.6 | 0.00 | 0.00 | 0.00 | 47 | 1021.5 |
| 20260508031746 | 8 | 77 | 0.0 | 4.8 | 0.00 | 0.00 | 0.00 | 45 | 1021.5 |
| 20260508031243 | 8 | 81 | 0.0 | 0.0 | 0.00 | 0.00 | 0.00 | 46 | 1021.3 |
| 20260508030739 | 8 | 91 | 0.0 | 3.2 | 0.00 | 0.00 | 0.00 | 43 | 1021.5 |
| 20260508030237 | 8 | 86 | 0.0 | 0.0 | 0.00 | 0.00 | 0.00 | 45 | 1021.4 |
| 20260508025733 | 8 | 75 | 0.0 | 3.2 | 0.00 | 0.00 | 0.00 | 45 | 1021.4 |
| 20260508025230 | 8 | 63 | 0.0 | 1.6 | 0.00 | 0.00 | 0.00 | 47 | 1021.5 |
| 20260508024726 | 8 | 71 | 1.6 | 1.6 | 0.00 | 0.00 | 0.00 | 46 | 1021.4 |
| 20260508024224 | 9 | 74 | 1.6 | 4.8 | 0.00 | 0.00 | 0.00 | 45 | 1021.3 |
| 20260508023720 | 10 | 74 | 0.0 | 3.2 | 0.00 | 0.00 | 0.00 | 44 | 1021.5 |
| 20260508023218 | 10 | 99 | 1.6 | 3.2 | 0.00 | 0.00 | 0.00 | 41 | 1021.1 |
| 20260508022713 | 10 | 69 | 1.6 | 4.8 | 0.00 | 0.00 | 0.00 | 41 | 1021.3 |
| 20260508022210 | 10 | 75 | 0.0 | 4.8 | 0.00 | 0.00 | 0.00 | 41 | 1021.0 |
| 20260508021707 | 10 | 72 | 3.2 | 6.4 | 0.00 | 0.00 | 0.00 | 40 | 1021.3 |
| 20260508021203 | 10 | 322 | 3.2 | 6.4 | 0.00 | 0.00 | 0.00 | 40 | 1021.3 |
| 20260508020700 | 10 | 73 | 0.0 | 6.4 | 0.00 | 0.00 | 0.00 | 40 | 1021.4 |
| 20260508020157 | 10 | 15 | 3.2 | 9.7 | 0.00 | 0.00 | 0.00 | 40 | 1021.1 |
| 20260508015655 | 11 | 85 | 3.2 | 4.8 | 0.00 | 0.00 | 0.00 | 39 | 1021.3 |
| 20260508015151 | 11 | 174 | 8.0 | 9.7 | 0.00 | 0.00 | 0.00 | 39 | 1021.0 |
| 20260508014647 | 11 | 78 | 0.0 | 1.6 | 0.00 | 0.00 | 0.00 | 39 | 1021.1 |
| 20260508014143 | 11 | 76 | 0.0 | 4.8 | 0.00 | 0.00 | 0.00 | 39 | 1021.0 |
| 20260508013640 | 11 | 8 | 6.4 | 6.4 | 0.00 | 0.00 | 0.00 | 39 | 1021.1 |
| 20260508013136 | 11 | 89 | 0.0 | 6.4 | 0.00 | 0.00 | 0.00 | 38 | 1021.3 |
| 20260508012635 | 11 | 82 | 3.2 | 6.4 | 0.00 | 0.00 | 0.00 | 40 | 1020.9 |
| 20260508012131 | 11 | 94 | 0.0 | 6.4 | 0.00 | 0.00 | 0.00 | 39 | 1021.3 |
| 20260508011629 | 11 | 37 | 8.0 | 11.3 | 0.00 | 0.00 | 0.00 | 38 | 1021.0 |
| 20260508011127 | 12 | 60 | 3.2 | 4.8 | 0.00 | 0.00 | 0.00 | 38 | 1020.9 |
| 20260508010623 | 12 | 75 | 0.0 | 9.7 | 0.00 | 0.00 | 0.00 | 37 | 1021.1 |
| 20260508010122 | 12 | 74 | 8.0 | 12.9 | 0.00 | 0.00 | 0.00 | 36 | 1021.0 |
| 20260508005618 | 12 | 334 | 6.4 | 9.7 | 0.00 | 0.00 | 0.00 | 36 | 1020.9 |
| 20260508005114 | 12 | 56 | 6.4 | 9.7 | 0.00 | 0.00 | 0.00 | 35 | 1021.1 |
| 20260508004610 | 12 | 59 | 1.6 | 3.2 | 0.00 | 0.00 | 0.00 | 37 | 1021.3 |
| 20260508004107 | 12 | 45 | 4.8 | 6.4 | 0.00 | 0.00 | 0.00 | 36 | 1021.3 |
| 20260508003604 | 12 | 50 | 3.2 | 4.8 | 0.00 | 0.00 | 0.00 | 36 | 1021.1 |
| 20260508003102 | 12 | 59 | 6.4 | 9.7 | 0.00 | 0.00 | 0.00 | 37 | 1021.4 |
| 20260508002558 | 12 | 74 | 4.8 | 9.7 | 0.00 | 0.00 | 0.00 | 36 | 1021.3 |
| 20260508002055 | 12 | 215 | 4.8 | 11.3 | 0.00 | 0.00 | 0.00 | 38 | 1021.5 |
| 20260508001550 | 12 | 77 | 1.6 | 9.7 | 0.00 | 0.00 | 0.00 | 39 | 1021.5 |
| 20260508001047 | 12 | 63 | 1.6 | 4.8 | 0.00 | 0.00 | 0.00 | 38 | 1021.5 |
| 20260508000543 | 12 | 86 | 0.0 | 6.4 | 0.00 | 0.00 | 0.00 | 38 | 1021.5 |
| 20260508000041 | 12 | 27 | 1.6 | 6.4 | 0.00 | 0.00 | 0.00 | 39 | 1021.8 |
| 20260507235537 | 11 | 74 | 1.6 | 3.2 | 0.00 | 0.00 | 0.00 | 39 | 1021.5 |
| 20260507235035 | 11 | 44 | 1.6 | 9.7 | 0.00 | 0.00 | 0.00 | 40 | 1021.8 |
| 20260507234531 | 11 | 101 | 1.6 | 9.7 | 0.00 | 0.00 | 0.00 | 39 | 1021.4 |
| 20260507234027 | 11 | 122 | 1.6 | 3.2 | 0.00 | 0.00 | 0.00 | 40 | 1021.6 |
| 20260507233524 | 11 | 76 | 4.8 | 6.4 | 0.00 | 0.00 | 0.00 | 40 | 1021.6 |
| 20260507233023 | 11 | 90 | 1.6 | 9.7 | 0.00 | 0.00 | 0.00 | 40 | 1021.9 |
| 20260507232519 | 11 | 4 | 3.2 | 4.8 | 0.00 | 0.00 | 0.00 | 41 | 1022.0 |
| 20260507232016 | 11 | 78 | 0.0 | 3.2 | 0.00 | 0.00 | 0.00 | 41 | 1021.9 |
| 20260507231512 | 11 | 57 | 4.8 | 6.4 | 0.00 | 0.00 | 0.00 | 40 | 1022.0 |
| 20260507231010 | 11 | 71 | 0.0 | 4.8 | 0.00 | 0.00 | 0.00 | 41 | 1021.8 |
| 20260507230507 | 11 | 61 | 3.2 | 9.7 | 0.00 | 0.00 | 0.00 | 41 | 1022.0 |
| 20260507230003 | 11 | 72 | 0.0 | 4.8 | 0.00 | 0.00 | 0.00 | 42 | 1022.1 |
| 20260507225458 | 11 | 96 | 0.0 | 6.4 | 0.00 | 0.00 | 0.00 | 40 | 1022.0 |
| 20260507224955 | 11 | 49 | 3.2 | 20.9 | 0.00 | 0.00 | 0.00 | 41 | 1022.1 |
| 20260507224450 | 11 | 88 | 3.2 | 9.7 | 0.00 | 0.00 | 0.00 | 41 | 1022.3 |
| 20260507223947 | 11 | 70 | 4.8 | 12.9 | 0.00 | 0.00 | 0.00 | 40 | 1022.3 |
| 20260507223443 | 11 | 110 | 3.2 | 14.5 | 0.00 | 0.00 | 0.00 | 41 | 1022.4 |
| 20260507222940 | 12 | 318 | 3.2 | 4.8 | 0.00 | 0.00 | 0.00 | 40 | 1022.1 |
| 20260507222437 | 11 | 57 | 1.6 | 9.7 | 0.00 | 0.00 | 0.00 | 39 | 1022.3 |
| 20260507221934 | 12 | 296 | 3.2 | 9.7 | 0.00 | 0.00 | 0.00 | 39 | 1022.3 |
| 20260507221431 | 12 | 77 | 3.2 | 6.4 | 0.00 | 0.00 | 0.00 | 41 | 1022.3 |
| 20260507220926 | 12 | 2 | 8.0 | 9.7 | 0.00 | 0.00 | 0.00 | 37 | 1022.4 |
| 20260507220424 | 12 | 65 | 3.2 | 14.5 | 0.00 | 0.00 | 0.00 | 37 | 1022.3 |
| 20260507215921 | 12 | 109 | 3.2 | 12.9 | 0.00 | 0.00 | 0.00 | 38 | 1022.4 |
| 20260507215417 | 12 | 29 | 3.2 | 11.3 | 0.00 | 0.00 | 0.00 | 38 | 1022.5 |
| 20260507214914 | 12 | 70 | 4.8 | 9.7 | 0.00 | 0.00 | 0.00 | 37 | 1022.4 |
| 20260507214412 | 12 | 81 | 0.0 | 12.9 | 0.00 | 0.00 | 0.00 | 38 | 1022.5 |
| 20260507213907 | 12 | 113 | 4.8 | 11.3 | 0.00 | 0.00 | 0.00 | 37 | 1022.7 |
| 20260507213404 | 12 | 65 | 3.2 | 6.4 | 0.00 | 0.00 | 0.00 | 36 | 1022.5 |
| 20260507212901 | 11 | 56 | 8.0 | 11.3 | 0.00 | 0.00 | 0.00 | 37 | 1022.5 |
| 20260507212357 | 12 | 92 | 8.0 | 12.9 | 0.00 | 0.00 | 0.00 | 37 | 1022.3 |
| 20260507211853 | 12 | 102 | 1.6 | 4.8 | 0.00 | 0.00 | 0.00 | 37 | 1022.4 |
| 20260507211350 | 12 | 76 | 1.6 | 4.8 | 0.00 | 0.00 | 0.00 | 36 | 1022.7 |
| 20260507210847 | 12 | 72 | 0.0 | 6.4 | 0.00 | 0.00 | 0.00 | 38 | 1022.8 |
| 20260507210344 | 12 | 68 | 1.6 | 6.4 | 0.00 | 0.00 | 0.00 | 38 | 1022.7 |
| 20260507205841 | 12 | 43 | 3.2 | 12.9 | 0.00 | 0.00 | 0.00 | 37 | 1022.9 |
| 20260507205338 | 12 | 82 | 0.0 | 4.8 | 0.00 | 0.00 | 0.00 | 40 | 1022.8 |
| 20260507204834 | 12 | 355 | 8.0 | 12.9 | 0.00 | 0.00 | 0.00 | 36 | 1022.8 |
| 20260507204331 | 13 | 89 | 3.2 | 14.5 | 0.00 | 0.00 | 0.00 | 37 | 1022.9 |
| 20260507203829 | 12 | 79 | 3.2 | 9.7 | 0.00 | 0.00 | 0.00 | 38 | 1023.0 |
| 20260507203327 | 12 | 83 | 3.2 | 4.8 | 0.00 | 0.00 | 0.00 | 35 | 1023.0 |
| 20260507202822 | 12 | 69 | 3.2 | 9.7 | 0.00 | 0.00 | 0.00 | 37 | 1022.8 |
| 20260507202319 | 13 | 55 | 9.7 | 16.1 | 0.00 | 0.00 | 0.00 | 37 | 1022.9 |
| 20260507201814 | 13 | 126 | 8.0 | 11.3 | 0.00 | 0.00 | 0.00 | 36 | 1022.9 |
| 20260507201310 | 12 | 245 | 9.7 | 17.7 | 0.00 | 0.00 | 0.00 | 37 | 1022.9 |
| 20260507200807 | 12 | 208 | 6.4 | 9.7 | 0.00 | 0.00 | 0.00 | 39 | 1022.8 |
| 20260507200303 | 11 | 104 | 1.6 | 4.8 | 0.00 | 0.00 | 0.00 | 41 | 1023.2 |
| 20260507195759 | 11 | 5 | 9.7 | 12.9 | 0.00 | 0.00 | 0.00 | 38 | 1023.2 |
| 20260507195256 | 11 | 84 | 4.8 | 11.3 | 0.00 | 0.00 | 0.00 | 39 | 1023.2 |
| 20260507194754 | 12 | 65 | 4.8 | 9.7 | 0.00 | 0.00 | 0.00 | 36 | 1023.2 |
| 20260507194249 | 12 | 228 | 8.0 | 12.9 | 0.00 | 0.00 | 0.00 | 37 | 1022.9 |
| 20260507193746 | 11 | 11 | 6.4 | 12.9 | 0.00 | 0.00 | 0.00 | 35 | 1023.0 |
| 20260507193243 | 11 | 57 | 6.4 | 6.4 | 0.00 | 0.00 | 0.00 | 37 | 1023.2 |
| 20260507192739 | 11 | 83 | 3.2 | 4.8 | 0.00 | 0.00 | 0.00 | 38 | 1023.0 |